Regional Weather Roundup
Issued by NWS Bismarck, ND

Home | Current Version | Previous Version | Text Only | Print | Product List | Glossary On
Versions: 1 2 3 4 5 6 7 8 9 10 11 12 13 14 15 16 17 18 19 20 21 22 23 24 25 26 27 28 29 30 31 32 33 34 35 36 37 38 39 40 41 42 43 44 45 46 47 48 49 50
000
ASUS43 KBIS 041610
RWRBIS

NWR BROADCAST TEXT
NATIONAL WEATHER SERVICE BISMARCK ND
1000 AM CST SUN DEC 04 2016

NOTE: "FAIR" INDICATES FEW OR NO CLOUDS BELOW 12,000 FEET WITH NO
SIGNIFICANT WEATHER AND/OR OBSTRUCTIONS TO VISIBILITY.


CITY           SKY/WX    TMP DP  RH WIND       PRES   REMARKS
WILLISTON      SUNNY     21  18  88 SW8       29.75F WCI  11
MINOT          CLOUDY    30  26  85 W14       29.70F WCI  19
MINOT AFB      CLOUDY    28  26  90 NW20      29.69F WCI  15
BISMARCK       CLOUDY    32  28  85 W13       29.78R
DICKINSON      SUNNY     23  16  74 W15       29.74S WCI  10
GARRISON         N/A     31  27  85 W18       29.72S WCI  19
HETTINGER ARPT SUNNY     25  17  72 W10       29.80F WCI  15
JAMESTOWN      CLOUDY    32  27  81 NW16G23   29.72R
BEACH          FAIR      27  18  69 SW9       29.79F WCI  17
CARRINGTON     CLOUDY    28  27  93 W15       29.72S WCI  17
HAZEN          PTSUNNY   28  23  80 W16       29.77S WCI  17
RUGBY          MIX PCPN  25  25 100 W16       29.68S WCI  12
STANLEY        FAIR      23  23 100 W15G21    29.73R WCI  10
TIOGA          FAIR      19  19 100 CALM      29.73F
WATFORD CITY   FAIR      19  18  93 SW12      29.75F WCI   7
$$

CITY           SKY/WX    TMP DP  RH WIND       PRES   REMARKS
GRAND FORKS    CLOUDY    34  32  92 S8        29.69S
GRAND FORKS AF CLOUDY    34  31  90 W9        29.69S
DEVILS LAKE    CLOUDY    27  25  92 W15       29.67F FOG     WCI  15
FARGO          LGT SNOW  33  31  92 S12       29.72F VSB 1
CANDO          CLOUDY    27  27 100 W15       29.68S FOG     WCI  15
CAVALIER       MIX PCPN  32  28  86 SW7       29.65S
GRAFTON          N/A     32  32 100 SW14      29.69S
GWINNER        CLOUDY    34  32  93 W13       29.74S
LANGDON        CLOUDY    30  28  93 W14       29.63S FOG     WCI  20
ROLLA          CLOUDY    27  27 100 W10G18    29.64R WCI  17
WALHALLA       LGT SNOW  32  32 100 W8        29.64S
$$

CITY           SKY/WX    TMP DP  RH WIND       PRES   REMARKS
ABERDEEN       MOSUNNY   32  28  85 W9        29.80S
MOBRIDGE       SUNNY     31  21  66 W12       29.79S
BUFFALO          N/A     30  22  72 W6        29.74F
RAPID CITY     SUNNY     37  21  52 W13       29.88S
GLASGOW        CLEAR     26  21  81 S9        29.71F WCI  17
SIDNEY         SUNNY     22  19  89 S7        29.77F WCI  13
WOLF POINT     CLEAR     24  21  88 CALM      29.75F
GLENDIVE       SUNNY     26  18  71 S7        29.77F WCI  18
MILES CITY     PTSUNNY   29  18  63 S6        29.79F
BAKER          CLOUDY    19  14  81 CALM      29.78F
$$

CITY           SKY/WX    TMP DP  RH WIND       PRES   REMARKS
BILLINGS       CLOUDY    34  15  46 SW10      29.77F
GREAT FALLS    CLOUDY    35  22  58 SW26G33   29.62F
REGINA         PTCLDY    18  16  93 E7        29.67F WCI   8
ESTEVAN        CLOUDY    25  25 100 W13       29.71R FOG     WCI  13
$$





USA.gov is the U.S. government's official web portal to all federal, state and local government web resources and services.